Location: Unspecified
(0.0000°N, 0.0000°E)
Time: 06:36:44
(UTC+00:00)

Courier 1B Rocket - Pass Details

Date: 16 December 2018
Orbit: 920 x 1202 km, 28.2° (Epoch: 16 June)

Event Time Altitude Azimuth Distance (km) Brightness Sun altitude
Rises 18:30:58 0° 276° (W) 4,090 9.4 -8.1°
Reaches altitude 10° 18:34:16 10° 265° (W) 3,129 9.0 -8.8°
Maximum altitude 18:40:50 29° 208° (SSW) 2,008 7.3 -10.3°
Drops below altitude 10° 18:47:17 10° 150° (SSE) 3,053 7.5 -11.8°
Sets 18:50:28 0° 139° (SE) 3,977 8.0 -12.5°
